Weather History for Fayetteville, AR

Change the Weather History Date:

Wednesday, July 4, 2012

  Actual Average Record
Temperature  
Mean Temperature 80 °F 77 °F  
Max Temperature 99 °F 87 °F 99 °F (1954)
Min Temperature 64 °F 66 °F 50 °F (1968)
Cooling Degree Days 16 12  
Month to date cooling degree days 46  
Year to date cooling degree days 404  
Since 1 June cooling degree days 291  
Growing Degree Days 30 (Base 50)    
Moisture  
Dew Point 60 °F    
Average Humidity 50    
Maximum Humidity 84    
Minimum Humidity 25    
Precipitation  
Precipitation 0.00 in 0.14 in 1.09 in (1996)
Month to date precipitation 0.56  
Year to date precipitation 25.75  
Sea Level Pressure  
Sea Level Pressure 29.96 in    
Wind  
Wind Speed 6 mph (SSW)    
Max Wind Speed 15 mph    
Max Gust Speed 22 mph    
Visibility 10 miles    
Events      
T = Trace of Precipitation, MM = Missing Value Source: NWS Daily Summary

Daily Weather History Graph

Daily Weather History Graph

Search for Another Location

Airport:

Trip Planner

Search our weather history database for the weather conditions in past years. The results will help you decide how hot, cold, wet, or windy it might be!

Date:

Astronomy

Jul. 04, 2012 Rise Set
Actual Time 6:05 AM CDT 8:36 PM CDT
Civil Twilight 5:35 AM CDT 9:06 PM CDT
Nautical Twilight 4:58 AM CDT 9:44 PM CDT
Astronomical Twilight 4:16 AM CDT 10:25 PM CDT
Moon 9:20 PM CDT (7/4) 7:05 AM CDT (7/4)
Length of Visible Light 15h 31m
Length of Day
14h 31m
Full, 99% of the Moon is Illuminated
Jul 4
Full
Jul 10
Last Quarter
Jul 18
New
Jul 26
First Quarter
Aug 1
Full

Hourly Weather History & Observations

Time (CDT) Temp. Heat Index Dew Point Humidity Pressure Visibility Wind Dir Wind Speed Gust Speed Precip Events Conditions
12:53 AM 72.0 °F - 57.9 °F 61% 29.96 in 10.0 mi South 8.1 mph - N/A   Clear
1:53 AM 71.1 °F - 57.9 °F 63% 29.95 in 10.0 mi Calm Calm - N/A   Clear
2:53 AM 68.0 °F - 57.2 °F 68% 30.01 in 10.0 mi South 3.5 mph - N/A   Clear
3:53 AM 69.1 °F - 59.0 °F 70% 29.96 in 10.0 mi Calm Calm - N/A   Clear
4:53 AM 68.0 °F - 60.1 °F 76% 29.97 in 10.0 mi South 5.8 mph - N/A   Clear
5:53 AM 64.9 °F - 60.1 °F 84% 29.98 in 10.0 mi South 5.8 mph - N/A   Clear
6:53 AM 70.0 °F - 62.1 °F 76% 29.99 in 10.0 mi Calm Calm - N/A   Clear
7:53 AM 78.1 °F - 64.9 °F 64% 30.00 in 10.0 mi South 8.1 mph - N/A   Clear
8:53 AM 82.9 °F 85.0 °F 66.0 °F 56% 30.02 in 10.0 mi South 9.2 mph - N/A   Clear
9:53 AM 86.0 °F 88.2 °F 66.0 °F 51% 30.01 in 10.0 mi SW 10.4 mph - N/A   Clear
10:53 AM 89.1 °F 90.3 °F 64.0 °F 43% 30.01 in 10.0 mi SSW 13.8 mph 20.7 mph N/A   Clear
11:53 AM 91.9 °F 93.3 °F 64.0 °F 39% 29.99 in 10.0 mi SW 12.7 mph 19.6 mph N/A   Clear
12:53 PM 93.9 °F 94.0 °F 61.0 °F 33% 29.98 in 10.0 mi SSW 12.7 mph 19.6 mph N/A   Clear
1:53 PM 96.1 °F 94.1 °F 55.0 °F 25% 29.97 in 10.0 mi South 15.0 mph 19.6 mph N/A   Clear
2:53 PM 97.0 °F 95.3 °F 55.9 °F 25% 29.94 in 10.0 mi SSW 11.5 mph 21.9 mph N/A   Clear
3:53 PM 97.0 °F 95.7 °F 57.0 °F 26% 29.93 in 10.0 mi South 8.1 mph 18.4 mph N/A   Clear
4:53 PM 96.1 °F 95.2 °F 57.9 °F 28% 29.91 in 10.0 mi South 10.4 mph 21.9 mph N/A   Clear
5:53 PM 97.0 °F 96.1 °F 57.9 °F 27% 29.89 in 10.0 mi WSW 9.2 mph - N/A   Partly Cloudy
6:53 PM 95.0 °F 94.4 °F 59.0 °F 30% 29.89 in 10.0 mi South 8.1 mph - N/A   Clear
7:53 PM 93.0 °F 92.3 °F 59.0 °F 32% 29.89 in 10.0 mi South 5.8 mph - N/A   Clear
8:53 PM 84.9 °F 85.4 °F 62.1 °F 46% 29.90 in 10.0 mi SSW 3.5 mph - N/A   Clear
9:53 PM 79.0 °F - 63.0 °F 58% 29.93 in 10.0 mi South 4.6 mph - N/A   Clear
10:53 PM 78.1 °F - 62.1 °F 58% 29.95 in 10.0 mi Calm Calm - N/A   Clear
11:53 PM 75.9 °F - 62.1 °F 62% 29.96 in 10.0 mi Calm Calm - N/A   Clear